Year,Month,Day,Hour,Minute,Value (Times are PST for temperature in C)
2015,08,13,00,00,20.20
2015,08,13,00,01,20.20
2015,08,13,00,02,20.20
2015,08,13,00,03,20.20
2015,08,13,00,04,20.20
2015,08,13,00,05,20.20
2015,08,13,00,06,20.20
2015,08,13,00,07,20.20
2015,08,13,00,08,20.20
2015,08,13,00,09,20.20
2015,08,13,00,10,20.20
2015,08,13,00,11,20.20
2015,08,13,00,12,20.20
2015,08,13,00,13,20.20
2015,08,13,00,14,20.20
2015,08,13,00,15,20.20
2015,08,13,00,16,20.10
2015,08,13,00,17,20.10
2015,08,13,00,18,20.10
2015,08,13,00,19,20.00
2015,08,13,00,20,19.90
2015,08,13,00,21,19.90
2015,08,13,00,22,19.90
2015,08,13,00,23,19.90
2015,08,13,00,24,19.80
2015,08,13,00,25,19.80
2015,08,13,00,26,19.80
2015,08,13,00,27,19.70
2015,08,13,00,28,19.70
2015,08,13,00,29,19.60
2015,08,13,00,30,19.60
2015,08,13,00,31,19.50
2015,08,13,00,32,19.50
2015,08,13,00,33,19.40
2015,08,13,00,34,19.40
2015,08,13,00,35,19.30
2015,08,13,00,36,19.30
2015,08,13,00,37,19.20
2015,08,13,00,38,19.20
2015,08,13,00,39,19.20
2015,08,13,00,40,19.10
2015,08,13,00,41,19.10
2015,08,13,00,42,19.10
2015,08,13,00,43,19.10
2015,08,13,00,44,19.10
2015,08,13,00,45,19.10
2015,08,13,00,46,19.10
2015,08,13,00,47,19.10
2015,08,13,00,48,19.20
2015,08,13,00,49,19.20
2015,08,13,00,50,19.20
2015,08,13,00,51,19.20
2015,08,13,00,52,19.20
2015,08,13,00,53,19.20
2015,08,13,00,54,19.20
2015,08,13,00,55,19.20
2015,08,13,00,56,19.20
2015,08,13,00,57,19.10
2015,08,13,00,58,19.10
2015,08,13,00,59,19.10
2015,08,13,01,00,19.10
2015,08,13,01,01,19.10
2015,08,13,01,02,19.10
2015,08,13,01,03,19.00
2015,08,13,01,04,18.90
2015,08,13,01,05,18.90
2015,08,13,01,06,18.90
2015,08,13,01,07,18.90
2015,08,13,01,08,18.80
2015,08,13,01,09,18.80
2015,08,13,01,10,18.70
2015,08,13,01,11,18.70
2015,08,13,01,12,18.70
2015,08,13,01,13,18.60
2015,08,13,01,14,18.60
2015,08,13,01,15,18.50
2015,08,13,01,16,18.50
2015,08,13,01,17,18.50
2015,08,13,01,18,18.40
2015,08,13,01,19,18.40
2015,08,13,01,20,18.40
2015,08,13,01,21,18.30
2015,08,13,01,22,18.30
2015,08,13,01,23,18.20
2015,08,13,01,24,18.20
2015,08,13,01,25,18.20
2015,08,13,01,26,18.20
2015,08,13,01,27,18.20
2015,08,13,01,28,18.10
2015,08,13,01,29,18.10
2015,08,13,01,30,18.00
2015,08,13,01,31,17.90
2015,08,13,01,32,17.90
2015,08,13,01,33,17.90
2015,08,13,01,34,17.90
2015,08,13,01,35,17.80
2015,08,13,01,36,17.80
2015,08,13,01,37,17.80
2015,08,13,01,38,17.70
2015,08,13,01,39,17.70
2015,08,13,01,40,17.70
2015,08,13,01,41,17.60
2015,08,13,01,42,17.60
2015,08,13,01,43,17.50
2015,08,13,01,44,17.50
2015,08,13,01,45,17.50
2015,08,13,01,46,17.40
2015,08,13,01,47,17.40
2015,08,13,01,48,17.40
2015,08,13,01,49,17.40
2015,08,13,01,50,17.40
2015,08,13,01,51,17.30
2015,08,13,01,52,17.30
2015,08,13,01,53,17.30
2015,08,13,01,54,17.30
2015,08,13,01,55,17.30
2015,08,13,01,56,17.30
2015,08,13,01,57,17.30
2015,08,13,01,58,17.30
2015,08,13,01,59,17.30
2015,08,13,02,00,17.30
2015,08,13,02,01,17.30
2015,08,13,02,02,17.30
2015,08,13,02,03,17.30
2015,08,13,02,04,17.30
2015,08,13,02,05,17.30
2015,08,13,02,06,17.30
2015,08,13,02,07,17.30
2015,08,13,02,08,17.30
2015,08,13,02,09,17.30
2015,08,13,02,10,17.40
2015,08,13,02,11,17.40
2015,08,13,02,12,17.40
2015,08,13,02,13,17.40
2015,08,13,02,14,17.40
2015,08,13,02,15,17.40
2015,08,13,02,16,17.40
2015,08,13,02,17,17.40
2015,08,13,02,18,17.40
2015,08,13,02,19,17.40
2015,08,13,02,20,17.40
2015,08,13,02,21,17.50
2015,08,13,02,22,17.50
2015,08,13,02,23,17.50
2015,08,13,02,24,17.50
2015,08,13,02,25,17.40
2015,08,13,02,26,17.40
2015,08,13,02,27,17.40
2015,08,13,02,28,17.30
2015,08,13,02,29,17.30
2015,08,13,02,30,17.20
2015,08,13,02,31,17.20
2015,08,13,02,32,17.20
2015,08,13,02,33,17.10
2015,08,13,02,34,17.00
2015,08,13,02,35,17.00
2015,08,13,02,36,17.00
2015,08,13,02,37,17.00
2015,08,13,02,38,16.90
2015,08,13,02,39,16.90
2015,08,13,02,40,16.90
2015,08,13,02,41,16.90
2015,08,13,02,42,16.90
2015,08,13,02,43,16.80
2015,08,13,02,44,16.80
2015,08,13,02,45,16.80
2015,08,13,02,46,16.90
2015,08,13,02,47,16.90
2015,08,13,02,48,16.90
2015,08,13,02,49,17.00
2015,08,13,02,50,17.00
2015,08,13,02,51,17.00
2015,08,13,02,52,17.00
2015,08,13,02,53,17.10
2015,08,13,02,54,17.10
2015,08,13,02,55,17.10
2015,08,13,02,56,17.10
2015,08,13,02,57,17.10
2015,08,13,02,58,17.20
2015,08,13,02,59,17.20
2015,08,13,03,00,17.20
2015,08,13,03,01,17.20
2015,08,13,03,02,17.20
2015,08,13,03,03,17.20
2015,08,13,03,04,17.20
2015,08,13,03,05,17.20
2015,08,13,03,06,17.20
2015,08,13,03,07,17.20
2015,08,13,03,08,17.30
2015,08,13,03,09,17.30
2015,08,13,03,10,17.30
2015,08,13,03,11,17.20
2015,08,13,03,12,17.20
2015,08,13,03,13,17.20
2015,08,13,03,14,17.20
2015,08,13,03,15,17.20
2015,08,13,03,16,17.20
2015,08,13,03,17,17.10
2015,08,13,03,18,17.10
2015,08,13,03,19,17.10
2015,08,13,03,20,17.10
2015,08,13,03,21,17.10
2015,08,13,03,22,17.10
2015,08,13,03,23,17.10
2015,08,13,03,24,17.10
2015,08,13,03,25,17.10
2015,08,13,03,26,17.10
2015,08,13,03,27,17.10
2015,08,13,03,28,17.10
2015,08,13,03,29,17.10
2015,08,13,03,30,17.00
2015,08,13,03,31,17.00
2015,08,13,03,32,17.00
2015,08,13,03,33,17.00
2015,08,13,03,34,17.10
2015,08,13,03,35,17.10
2015,08,13,03,36,17.00
2015,08,13,03,37,17.00
2015,08,13,03,38,17.00
2015,08,13,03,39,17.00
2015,08,13,03,40,17.00
2015,08,13,03,41,17.00
2015,08,13,03,42,16.90
2015,08,13,03,43,16.90
2015,08,13,03,44,16.90
2015,08,13,03,45,16.80
2015,08,13,03,46,16.80
2015,08,13,03,47,16.80
2015,08,13,03,48,16.80
2015,08,13,03,49,16.70
2015,08,13,03,50,16.70
2015,08,13,03,51,16.70
2015,08,13,03,52,16.70
2015,08,13,03,53,16.70
2015,08,13,03,54,16.70
2015,08,13,03,55,16.60
2015,08,13,03,56,16.60
2015,08,13,03,57,16.50
2015,08,13,03,58,16.40
2015,08,13,03,59,16.40
2015,08,13,04,00,16.40
2015,08,13,04,01,16.40
2015,08,13,04,02,16.40
2015,08,13,04,03,16.30
2015,08,13,04,04,16.30
2015,08,13,04,05,16.30
2015,08,13,04,06,16.30
2015,08,13,04,07,16.20
2015,08,13,04,08,16.20
2015,08,13,04,09,16.20
2015,08,13,04,10,16.20
2015,08,13,04,11,16.10
2015,08,13,04,12,16.10
2015,08,13,04,13,16.10
2015,08,13,04,14,16.10
2015,08,13,04,15,16.10
2015,08,13,04,16,16.10
2015,08,13,04,17,16.10
2015,08,13,04,18,16.10
2015,08,13,04,19,16.10
2015,08,13,04,20,16.10
2015,08,13,04,21,16.00
2015,08,13,04,22,15.90
2015,08,13,04,23,15.90
2015,08,13,04,24,15.80
2015,08,13,04,25,15.80
2015,08,13,04,26,15.80
2015,08,13,04,27,15.70
2015,08,13,04,28,15.70
2015,08,13,04,29,15.60
2015,08,13,04,30,15.60
2015,08,13,04,31,15.50
2015,08,13,04,32,15.50
2015,08,13,04,33,15.50
2015,08,13,04,34,15.50
2015,08,13,04,35,15.40
2015,08,13,04,36,15.40
2015,08,13,04,37,15.30
2015,08,13,04,38,15.30
2015,08,13,04,39,15.30
2015,08,13,04,40,15.20
2015,08,13,04,41,15.20
2015,08,13,04,42,15.10
2015,08,13,04,43,15.10
2015,08,13,04,44,15.00
2015,08,13,04,45,15.00
2015,08,13,04,46,14.90
2015,08,13,04,47,14.90
2015,08,13,04,48,14.90
2015,08,13,04,49,14.80
2015,08,13,04,50,14.80
2015,08,13,04,51,14.80
2015,08,13,04,52,14.80
2015,08,13,04,53,14.70
2015,08,13,04,54,14.70
2015,08,13,04,55,14.70
2015,08,13,04,56,14.60
2015,08,13,04,57,14.60
2015,08,13,04,58,14.60
2015,08,13,04,59,14.60
2015,08,13,05,00,14.60
2015,08,13,05,01,14.60
2015,08,13,05,02,14.60
2015,08,13,05,03,14.50
2015,08,13,05,04,14.50
2015,08,13,05,05,14.50
2015,08,13,05,06,14.50
2015,08,13,05,07,14.50
2015,08,13,05,08,14.40
2015,08,13,05,09,14.50
2015,08,13,05,10,14.50
2015,08,13,05,11,14.50
2015,08,13,05,12,14.60
2015,08,13,05,13,14.60
2015,08,13,05,14,14.70
2015,08,13,05,15,14.70
2015,08,13,05,16,14.80
2015,08,13,05,17,14.80
2015,08,13,05,18,14.80
2015,08,13,05,19,14.80
2015,08,13,05,20,14.80
2015,08,13,05,21,14.80
2015,08,13,05,22,14.80
2015,08,13,05,23,14.80
2015,08,13,05,24,14.80
2015,08,13,05,25,14.80
2015,08,13,05,26,14.80
2015,08,13,05,27,14.80
2015,08,13,05,28,14.80
2015,08,13,05,29,14.80
2015,08,13,05,30,14.80
2015,08,13,05,31,14.80
2015,08,13,05,32,14.80
2015,08,13,05,33,14.80
2015,08,13,05,34,14.80
2015,08,13,05,35,14.70
2015,08,13,05,36,14.70
2015,08,13,05,37,14.60
2015,08,13,05,38,14.60
2015,08,13,05,39,14.50
2015,08,13,05,40,14.50
2015,08,13,05,41,14.50
2015,08,13,05,42,14.40
2015,08,13,05,43,14.40
2015,08,13,05,44,14.40
2015,08,13,05,45,14.40
2015,08,13,05,46,14.30
2015,08,13,05,47,14.30
2015,08,13,05,48,14.30
2015,08,13,05,49,14.20
2015,08,13,05,50,14.20
2015,08,13,05,51,14.20
2015,08,13,05,52,14.20
2015,08,13,05,53,14.20
2015,08,13,05,54,14.20
2015,08,13,05,55,14.20
2015,08,13,05,56,14.20
2015,08,13,05,57,14.20
2015,08,13,05,58,14.20
2015,08,13,05,59,14.20
2015,08,13,06,00,14.20
2015,08,13,06,01,14.20
2015,08,13,06,02,14.20
2015,08,13,06,03,14.20
2015,08,13,06,04,14.20
2015,08,13,06,05,14.20
2015,08,13,06,06,14.20
2015,08,13,06,07,14.20
2015,08,13,06,08,14.20
2015,08,13,06,09,14.20
2015,08,13,06,10,14.10
2015,08,13,06,11,14.10
2015,08,13,06,12,14.10
2015,08,13,06,13,14.00
2015,08,13,06,14,14.00
2015,08,13,06,15,14.00
2015,08,13,06,16,14.00
2015,08,13,06,17,13.90
2015,08,13,06,18,13.90
2015,08,13,06,19,13.90
2015,08,13,06,20,13.90
2015,08,13,06,21,13.90
2015,08,13,06,22,13.90
2015,08,13,06,23,14.00
2015,08,13,06,24,14.00
2015,08,13,06,25,14.00
2015,08,13,06,26,14.00
2015,08,13,06,27,14.00
2015,08,13,06,28,14.00
2015,08,13,06,29,14.00
2015,08,13,06,30,14.00
2015,08,13,06,31,13.90
2015,08,13,06,32,13.90
2015,08,13,06,33,13.90
2015,08,13,06,34,13.90
2015,08,13,06,35,13.90
2015,08,13,06,36,13.90
2015,08,13,06,37,13.80
2015,08,13,06,38,13.80
2015,08,13,06,39,13.80
2015,08,13,06,40,13.80
2015,08,13,06,41,13.80
2015,08,13,06,42,13.80
2015,08,13,06,43,13.80
2015,08,13,06,44,13.80
2015,08,13,06,45,13.80
2015,08,13,06,46,13.80
2015,08,13,06,47,13.80
2015,08,13,06,48,13.80
2015,08,13,06,49,13.80
2015,08,13,06,50,13.90
2015,08,13,06,51,13.90
2015,08,13,06,52,13.90
2015,08,13,06,53,14.00
2015,08,13,06,54,14.00
2015,08,13,06,55,14.10
2015,08,13,06,56,14.10
2015,08,13,06,57,14.20
2015,08,13,06,58,14.20
2015,08,13,06,59,14.20
2015,08,13,07,00,14.20
2015,08,13,07,01,14.30
2015,08,13,07,02,14.30
2015,08,13,07,03,14.40
2015,08,13,07,04,14.40
2015,08,13,07,05,14.40
2015,08,13,07,06,14.50
2015,08,13,07,07,14.50
2015,08,13,07,08,14.50
2015,08,13,07,09,14.60
2015,08,13,07,10,14.60
2015,08,13,07,11,14.60
2015,08,13,07,12,14.70
2015,08,13,07,13,14.70
2015,08,13,07,14,14.70
2015,08,13,07,15,14.70
2015,08,13,07,16,14.80
2015,08,13,07,17,14.80
2015,08,13,07,18,14.80
2015,08,13,07,19,14.80
2015,08,13,07,20,14.80
2015,08,13,07,21,14.90
2015,08,13,07,22,14.90
2015,08,13,07,23,14.90
2015,08,13,07,24,15.00
2015,08,13,07,25,15.00
2015,08,13,07,26,15.00
2015,08,13,07,27,15.00
2015,08,13,07,28,14.90
2015,08,13,07,29,14.90
2015,08,13,07,30,14.90
2015,08,13,07,31,14.90
2015,08,13,07,32,14.90
2015,08,13,07,33,14.90
2015,08,13,07,34,14.90
2015,08,13,07,35,14.90
2015,08,13,07,36,14.90
2015,08,13,07,37,14.90
2015,08,13,07,38,14.90
2015,08,13,07,39,14.90
2015,08,13,07,40,15.00
2015,08,13,07,41,15.00
2015,08,13,07,42,15.10
2015,08,13,07,43,15.10
2015,08,13,07,44,15.20
2015,08,13,07,45,15.20
2015,08,13,07,46,15.30
2015,08,13,07,47,15.30
2015,08,13,07,48,15.30
2015,08,13,07,49,15.40
2015,08,13,07,50,15.50
2015,08,13,07,51,15.60
2015,08,13,07,52,15.60
2015,08,13,07,53,15.70
2015,08,13,07,54,15.80
2015,08,13,07,55,15.80
2015,08,13,07,56,15.90
2015,08,13,07,57,16.10
2015,08,13,07,58,16.20
2015,08,13,07,59,16.30
2015,08,13,08,00,16.40
2015,08,13,08,01,16.60
2015,08,13,08,02,16.80
2015,08,13,08,03,16.90
2015,08,13,08,04,17.00
2015,08,13,08,05,17.10
2015,08,13,08,06,17.30
2015,08,13,08,07,17.30
2015,08,13,08,08,17.40
2015,08,13,08,09,17.50
2015,08,13,08,10,17.70
2015,08,13,08,11,17.80
2015,08,13,08,12,17.90
2015,08,13,08,13,17.90
2015,08,13,08,14,17.90
2015,08,13,08,15,18.00
2015,08,13,08,16,18.10
2015,08,13,08,17,18.20
2015,08,13,08,18,18.20
2015,08,13,08,19,18.30
2015,08,13,08,20,18.30
2015,08,13,08,21,18.40
2015,08,13,08,22,18.40
2015,08,13,08,23,18.40
2015,08,13,08,24,18.50
2015,08,13,08,25,18.50
2015,08,13,08,26,18.50
2015,08,13,08,27,18.50
2015,08,13,08,28,18.50
2015,08,13,08,29,18.60
2015,08,13,08,30,18.60
2015,08,13,08,31,18.70
2015,08,13,08,32,18.80
2015,08,13,08,33,18.80
2015,08,13,08,34,18.90
2015,08,13,08,35,19.00
2015,08,13,08,36,19.10
2015,08,13,08,37,19.20
2015,08,13,08,38,19.30
2015,08,13,08,39,19.40
2015,08,13,08,40,19.40
2015,08,13,08,41,19.50
2015,08,13,08,42,19.50
2015,08,13,08,43,19.60
2015,08,13,08,44,19.60
2015,08,13,08,45,19.70
2015,08,13,08,46,19.70
2015,08,13,08,47,19.80
2015,08,13,08,48,19.90
2015,08,13,08,49,19.90
2015,08,13,08,50,19.90
2015,08,13,08,51,20.00
2015,08,13,08,52,20.10
2015,08,13,08,53,20.20
2015,08,13,08,54,20.30
2015,08,13,08,55,20.40
2015,08,13,08,56,20.50
2015,08,13,08,57,20.60
2015,08,13,08,58,20.80
2015,08,13,08,59,20.90
2015,08,13,09,00,21.00
2015,08,13,09,01,21.10
2015,08,13,09,02,21.20
2015,08,13,09,03,21.30
2015,08,13,09,04,21.40
2015,08,13,09,05,21.50
2015,08,13,09,06,21.60
2015,08,13,09,07,21.70
2015,08,13,09,08,21.80
2015,08,13,09,09,21.90
2015,08,13,09,10,22.00
2015,08,13,09,11,22.00
2015,08,13,09,12,22.10
2015,08,13,09,13,22.10
2015,08,13,09,14,22.10
2015,08,13,09,15,22.10
2015,08,13,09,16,22.20
2015,08,13,09,17,22.20
2015,08,13,09,18,22.20
2015,08,13,09,19,22.30
2015,08,13,09,20,22.30
2015,08,13,09,21,22.40
2015,08,13,09,22,22.50
2015,08,13,09,23,22.50
2015,08,13,09,24,22.60
2015,08,13,09,25,22.60
2015,08,13,09,26,22.70
2015,08,13,09,27,22.70
2015,08,13,09,28,22.70
2015,08,13,09,29,22.80
2015,08,13,09,30,22.80
2015,08,13,09,31,22.90
2015,08,13,09,32,22.90
2015,08,13,09,33,22.90
2015,08,13,09,34,22.90
2015,08,13,09,35,22.90
2015,08,13,09,36,22.90
2015,08,13,09,37,22.90
2015,08,13,09,38,23.00
2015,08,13,09,39,23.10
2015,08,13,09,40,23.10
2015,08,13,09,41,23.20
2015,08,13,09,42,23.20
2015,08,13,09,43,23.20
2015,08,13,09,44,23.30
2015,08,13,09,45,23.30
2015,08,13,09,46,23.30
2015,08,13,09,47,23.40
2015,08,13,09,48,23.40
2015,08,13,09,49,23.40
2015,08,13,09,50,23.40
2015,08,13,09,51,23.40
2015,08,13,09,52,23.30
2015,08,13,09,53,23.30
2015,08,13,09,54,23.30
2015,08,13,09,55,23.30
2015,08,13,09,56,23.30
2015,08,13,09,57,23.30
2015,08,13,09,58,23.30
2015,08,13,09,59,23.30
2015,08,13,10,00,23.30
2015,08,13,10,01,23.30
2015,08,13,10,02,23.30
2015,08,13,10,03,23.30
2015,08,13,10,04,23.30
2015,08,13,10,05,23.30
2015,08,13,10,06,23.30
2015,08,13,10,07,23.40
2015,08,13,10,08,23.30
2015,08,13,10,09,23.30
2015,08,13,10,10,23.30
2015,08,13,10,11,23.30
2015,08,13,10,12,23.30
2015,08,13,10,13,23.30
2015,08,13,10,14,23.30
2015,08,13,10,15,23.30
2015,08,13,10,16,23.30
2015,08,13,10,17,23.30
2015,08,13,10,18,23.20
2015,08,13,10,19,23.20
2015,08,13,10,20,23.20
2015,08,13,10,21,23.20
2015,08,13,10,22,23.20
2015,08,13,10,23,23.30
2015,08,13,10,24,23.30
2015,08,13,10,25,23.30
2015,08,13,10,26,23.30
2015,08,13,10,27,23.30
2015,08,13,10,28,23.30
2015,08,13,10,29,23.30
2015,08,13,10,30,23.30
2015,08,13,10,31,23.20
2015,08,13,10,32,23.30
2015,08,13,10,33,23.30
2015,08,13,10,34,23.30
2015,08,13,10,35,23.40
2015,08,13,10,36,23.40
2015,08,13,10,37,23.60
2015,08,13,10,38,23.70
2015,08,13,10,39,23.70
2015,08,13,10,40,23.90
2015,08,13,10,41,23.90
2015,08,13,10,42,23.90
2015,08,13,10,43,24.00
2015,08,13,10,44,24.10
2015,08,13,10,45,24.10
2015,08,13,10,46,24.10
2015,08,13,10,47,24.10
2015,08,13,10,48,24.10
2015,08,13,10,49,24.10
2015,08,13,10,50,24.10
2015,08,13,10,51,24.10
2015,08,13,10,52,24.10
2015,08,13,10,53,24.10
2015,08,13,10,54,24.20
2015,08,13,10,55,24.30
2015,08,13,10,56,24.30
2015,08,13,10,57,24.40
2015,08,13,10,58,24.40
2015,08,13,10,59,24.50
2015,08,13,11,00,24.50
2015,08,13,11,01,24.60
2015,08,13,11,02,24.70
2015,08,13,11,03,24.70
2015,08,13,11,04,24.80
2015,08,13,11,05,24.80
2015,08,13,11,06,24.80
2015,08,13,11,07,24.80
2015,08,13,11,08,24.80
2015,08,13,11,09,24.70
2015,08,13,11,10,24.60
2015,08,13,11,11,24.60
2015,08,13,11,12,24.60
2015,08,13,11,13,24.60
2015,08,13,11,14,24.60
2015,08,13,11,15,24.60
2015,08,13,11,16,24.60
2015,08,13,11,17,24.60
2015,08,13,11,18,24.70
2015,08,13,11,19,24.70
2015,08,13,11,20,24.60
2015,08,13,11,21,24.60
2015,08,13,11,22,24.70
2015,08,13,11,23,24.60
2015,08,13,11,24,24.60
2015,08,13,11,25,24.50
2015,08,13,11,26,24.50
2015,08,13,11,27,24.50
2015,08,13,11,28,24.60
2015,08,13,11,29,24.70
2015,08,13,11,30,24.70
2015,08,13,11,31,24.70
2015,08,13,11,32,24.80
2015,08,13,11,33,24.80
2015,08,13,11,34,24.80
2015,08,13,11,35,24.90
2015,08,13,11,36,24.90
2015,08,13,11,37,24.90
2015,08,13,11,38,24.90
2015,08,13,11,39,25.00
2015,08,13,11,40,25.00
2015,08,13,11,41,24.90
2015,08,13,11,42,24.80
2015,08,13,11,43,24.60
2015,08,13,11,44,24.50
2015,08,13,11,45,24.60
2015,08,13,11,46,24.60
2015,08,13,11,47,24.70
2015,08,13,11,48,24.70
2015,08,13,11,49,24.80
2015,08,13,11,50,24.80
2015,08,13,11,51,24.90
2015,08,13,11,52,24.90
2015,08,13,11,53,24.90
2015,08,13,11,54,25.00
2015,08,13,11,55,25.10
2015,08,13,11,56,25.20
2015,08,13,11,57,25.30
2015,08,13,11,58,25.30
2015,08,13,11,59,25.40
2015,08,13,12,00,25.50
2015,08,13,12,01,25.60
2015,08,13,12,02,25.80
2015,08,13,12,03,25.90
2015,08,13,12,04,25.90
2015,08,13,12,05,25.90
2015,08,13,12,06,25.90
2015,08,13,12,07,25.80
2015,08,13,12,08,25.80
2015,08,13,12,09,25.80
2015,08,13,12,10,25.80
2015,08,13,12,11,25.80
2015,08,13,12,12,25.80
2015,08,13,12,13,25.90
2015,08,13,12,14,25.80
2015,08,13,12,15,25.70
2015,08,13,12,16,25.70
2015,08,13,12,17,25.70
2015,08,13,12,18,25.80
2015,08,13,12,19,25.80
2015,08,13,12,20,25.80
2015,08,13,12,21,25.70
2015,08,13,12,22,25.70
2015,08,13,12,23,25.70
2015,08,13,12,24,25.70
2015,08,13,12,25,25.70
2015,08,13,12,26,25.70
2015,08,13,12,27,25.80
2015,08,13,12,28,25.80
2015,08,13,12,29,25.90
2015,08,13,12,30,25.80
2015,08,13,12,31,25.80
2015,08,13,12,32,25.90
2015,08,13,12,33,25.90
2015,08,13,12,34,25.90
2015,08,13,12,35,25.90
2015,08,13,12,36,25.90
2015,08,13,12,37,26.00
2015,08,13,12,38,25.90
2015,08,13,12,39,25.90
2015,08,13,12,40,25.90
2015,08,13,12,41,25.90
2015,08,13,12,42,25.90
2015,08,13,12,43,25.90
2015,08,13,12,44,26.00
2015,08,13,12,45,26.00
2015,08,13,12,46,26.10
2015,08,13,12,47,26.10
2015,08,13,12,48,26.10
2015,08,13,12,49,26.20
2015,08,13,12,50,26.20
2015,08,13,12,51,26.20
2015,08,13,12,52,26.30
2015,08,13,12,53,26.30
2015,08,13,12,54,26.30
2015,08,13,12,55,26.30
2015,08,13,12,56,26.30
2015,08,13,12,57,26.30
2015,08,13,12,58,26.20
2015,08,13,12,59,26.20
2015,08,13,13,00,26.20
2015,08,13,13,01,26.10
2015,08,13,13,02,26.20
2015,08,13,13,03,26.20
2015,08,13,13,04,26.20
2015,08,13,13,05,26.20
2015,08,13,13,06,26.20
2015,08,13,13,07,26.20
2015,08,13,13,08,26.30
2015,08,13,13,09,26.30
2015,08,13,13,10,26.30
2015,08,13,13,11,26.30
2015,08,13,13,12,26.30
2015,08,13,13,13,26.40
2015,08,13,13,14,26.40
2015,08,13,13,15,26.40
2015,08,13,13,16,26.60
2015,08,13,13,17,26.60
2015,08,13,13,18,26.70
2015,08,13,13,19,26.60
2015,08,13,13,20,26.60
2015,08,13,13,21,26.60
2015,08,13,13,22,26.60
2015,08,13,13,23,26.60
2015,08,13,13,24,26.60
2015,08,13,13,25,26.60
2015,08,13,13,26,26.70
2015,08,13,13,27,26.70
2015,08,13,13,28,26.60
2015,08,13,13,29,26.60
2015,08,13,13,30,26.60
2015,08,13,13,31,26.50
2015,08,13,13,32,26.40
2015,08,13,13,33,26.40
2015,08,13,13,34,26.60
2015,08,13,13,35,26.60
2015,08,13,13,36,26.60
2015,08,13,13,37,26.60
2015,08,13,13,38,26.60
2015,08,13,13,39,26.60
2015,08,13,13,40,26.70
2015,08,13,13,41,26.70
2015,08,13,13,42,26.80
2015,08,13,13,43,26.70
2015,08,13,13,44,26.70
2015,08,13,13,45,26.70
2015,08,13,13,46,26.70
2015,08,13,13,47,26.70
2015,08,13,13,48,26.70
2015,08,13,13,49,26.80
2015,08,13,13,50,26.80
2015,08,13,13,51,26.80
2015,08,13,13,52,26.90
2015,08,13,13,53,26.90
2015,08,13,13,54,26.90
2015,08,13,13,55,27.10
2015,08,13,13,56,27.10
2015,08,13,13,57,27.10
2015,08,13,13,58,27.20
2015,08,13,13,59,27.30
2015,08,13,14,00,27.20
2015,08,13,14,01,27.30
2015,08,13,14,02,27.30
2015,08,13,14,03,27.30
2015,08,13,14,04,27.30
2015,08,13,14,05,27.40
2015,08,13,14,06,27.40
2015,08,13,14,07,27.60
2015,08,13,14,08,27.60
2015,08,13,14,09,27.70
2015,08,13,14,10,27.80
2015,08,13,14,11,27.90
2015,08,13,14,12,27.90
2015,08,13,14,13,27.90
2015,08,13,14,14,27.80
2015,08,13,14,15,27.70
2015,08,13,14,16,27.70
2015,08,13,14,17,27.70
2015,08,13,14,18,27.70
2015,08,13,14,19,27.70
2015,08,13,14,20,27.80
2015,08,13,14,21,27.80
2015,08,13,14,22,27.80
2015,08,13,14,23,27.80
2015,08,13,14,24,27.80
2015,08,13,14,25,27.80
2015,08,13,14,26,27.80
2015,08,13,14,27,27.80
2015,08,13,14,28,27.80
2015,08,13,14,29,27.90
2015,08,13,14,30,27.90
2015,08,13,14,31,28.00
2015,08,13,14,32,28.00
2015,08,13,14,33,28.10
2015,08,13,14,34,28.20
2015,08,13,14,35,28.20
2015,08,13,14,36,28.30
2015,08,13,14,37,28.40
2015,08,13,14,38,28.40
2015,08,13,14,39,28.40
2015,08,13,14,40,28.40
2015,08,13,14,41,28.40
2015,08,13,14,42,28.50
2015,08,13,14,43,28.60
2015,08,13,14,44,28.60
2015,08,13,14,45,28.70
2015,08,13,14,46,28.80
2015,08,13,14,47,28.80
2015,08,13,14,48,28.70
2015,08,13,14,49,28.60
2015,08,13,14,50,28.60
2015,08,13,14,51,28.60
2015,08,13,14,52,28.60
2015,08,13,14,53,28.60
2015,08,13,14,54,28.60
2015,08,13,14,55,28.60
2015,08,13,14,56,28.60
2015,08,13,14,57,28.60
2015,08,13,14,58,28.60
2015,08,13,14,59,28.60
2015,08,13,15,00,28.70
2015,08,13,15,01,28.70
2015,08,13,15,02,28.60
2015,08,13,15,03,28.60
2015,08,13,15,04,28.40
2015,08,13,15,05,28.40
2015,08,13,15,06,28.40
2015,08,13,15,07,28.40
2015,08,13,15,08,28.50
2015,08,13,15,09,28.60
2015,08,13,15,10,28.60
2015,08,13,15,11,28.60
2015,08,13,15,12,28.60
2015,08,13,15,13,28.60
2015,08,13,15,14,28.60
2015,08,13,15,15,28.60
2015,08,13,15,16,28.60
2015,08,13,15,17,28.60
2015,08,13,15,18,28.60
2015,08,13,15,19,28.60
2015,08,13,15,20,28.60
2015,08,13,15,21,28.50
2015,08,13,15,22,28.40
2015,08,13,15,23,28.40
2015,08,13,15,24,28.40
2015,08,13,15,25,28.30
2015,08,13,15,26,28.30
2015,08,13,15,27,28.30
2015,08,13,15,28,28.20
2015,08,13,15,29,28.20
2015,08,13,15,30,28.10
2015,08,13,15,31,28.10
2015,08,13,15,32,28.10
2015,08,13,15,33,28.00
2015,08,13,15,34,28.00
2015,08,13,15,35,28.00
2015,08,13,15,36,28.00
2015,08,13,15,37,28.00
2015,08,13,15,38,28.00
2015,08,13,15,39,28.00
2015,08,13,15,40,28.00
2015,08,13,15,41,28.00
2015,08,13,15,42,28.00
2015,08,13,15,43,28.00
2015,08,13,15,44,28.10
2015,08,13,15,45,28.10
2015,08,13,15,46,28.10
2015,08,13,15,47,28.10
2015,08,13,15,48,28.10
2015,08,13,15,49,28.10
2015,08,13,15,50,28.10
2015,08,13,15,51,28.00
2015,08,13,15,52,28.00
2015,08,13,15,53,28.00
2015,08,13,15,54,28.00
2015,08,13,15,55,28.10
2015,08,13,15,56,28.10
2015,08,13,15,57,28.20
2015,08,13,15,58,28.20
2015,08,13,15,59,28.30
2015,08,13,16,00,28.30
2015,08,13,16,01,28.30
2015,08,13,16,02,28.30
2015,08,13,16,03,28.30
2015,08,13,16,04,28.40
2015,08,13,16,05,28.30
2015,08,13,16,06,28.30
2015,08,13,16,07,28.20
2015,08,13,16,08,28.00
2015,08,13,16,09,27.90
2015,08,13,16,10,27.70
2015,08,13,16,11,27.50
2015,08,13,16,12,27.30
2015,08,13,16,13,27.30
2015,08,13,16,14,27.20
2015,08,13,16,15,27.10
2015,08,13,16,16,27.10
2015,08,13,16,17,26.90
2015,08,13,16,18,26.80
2015,08,13,16,19,26.80
2015,08,13,16,20,26.70
2015,08,13,16,21,26.60
2015,08,13,16,22,26.60
2015,08,13,16,23,26.60
2015,08,13,16,24,26.60
2015,08,13,16,25,26.60
2015,08,13,16,26,26.60
2015,08,13,16,27,26.60
2015,08,13,16,28,26.50
2015,08,13,16,29,26.40
2015,08,13,16,30,26.40
2015,08,13,16,31,26.50
2015,08,13,16,32,26.50
2015,08,13,16,33,26.60
2015,08,13,16,34,26.60
2015,08,13,16,35,26.60
2015,08,13,16,36,26.60
2015,08,13,16,37,26.60
2015,08,13,16,38,26.60
2015,08,13,16,39,26.60
2015,08,13,16,40,26.60
2015,08,13,16,41,26.60
2015,08,13,16,42,26.60
2015,08,13,16,43,26.50
2015,08,13,16,44,26.40
2015,08,13,16,45,26.40
2015,08,13,16,46,26.40
2015,08,13,16,47,26.40
2015,08,13,16,48,26.40
2015,08,13,16,49,26.40
2015,08,13,16,50,26.30
2015,08,13,16,51,26.30
2015,08,13,16,52,26.20
2015,08,13,16,53,26.20
2015,08,13,16,54,26.10
2015,08,13,16,55,26.10
2015,08,13,16,56,26.00
2015,08,13,16,57,26.00
2015,08,13,16,58,26.00
2015,08,13,16,59,26.00
2015,08,13,17,00,26.00
2015,08,13,17,01,26.00
2015,08,13,17,02,26.00
2015,08,13,17,03,25.90
2015,08,13,17,04,25.90
2015,08,13,17,05,25.90
2015,08,13,17,06,25.90
2015,08,13,17,07,25.90
2015,08,13,17,08,25.90
2015,08,13,17,09,25.90
2015,08,13,17,10,25.80
2015,08,13,17,11,25.80
2015,08,13,17,12,25.70
2015,08,13,17,13,25.70
2015,08,13,17,14,25.70
2015,08,13,17,15,25.70
2015,08,13,17,16,25.70
2015,08,13,17,17,25.70
2015,08,13,17,18,25.70
2015,08,13,17,19,25.70